Dewpoint
48 48 48 47 46 45 46 46 47 46 47 46 44 43 41 40 39 37 37 38 37 32 28 28 28 30 30 34 40 39 36 40 42 40 38 36 38 42 44 44 44 44 44 45 45 45 46 46 45 46 48 47 46 46 45 45 45 45 45 44 44 44 42 42 43 41 41 44 44 43 43 44 44 44
48 48 46 46 46 47 46 45 45 46 46 47 45 42 43 41 39 39 37 37 38 37 37 33 30 30 31 34 38 37 35 43 40 37 36 36 35 42 44 43 42 43 44 44 43 43 44 45 46 47 46 46 46 46 46 45 45 46 45 44 43 42 42 42 41 41 41 41 41 41 41 42 43 43
47 46 46 45 45 46 46 46 46 45 45 44 42 42 44 45 41 40 39 35 38 38 37 38 34 33 35 34 35 37 36 39 39 35 35 33 40 45 40 42 42 43 43 42 44 45 43 41 42 44 46 46 46 46 46 46 45 44 43 43 43 43 42 42 42 42 42 42 43 43 42 42 42 43
47 47 45 45 46 48 47 45 45 45 44 44 43 43 44 43 43 41 40 36 35 39 39 39 37 34 34 35 33 30 32 36 43 32 33 33 41 33 33 40 41 41 41 41 42 43 41 40 42 44 46 46 45 45 45 44 44 43 43 43 43 43 43 43 43 44 44 42 42 43 41 42 42 42
44 43 41 42 43 45 45 45 46 43 43 44 45 44 43 42 43 40 38 36 35 36 41 40 39 36 37 32 29 28 31 32 32 37 31 32 31 32 32 32 38 39 40 41 42 42 40 41 45 46 45 44 43 43 43 43 43 43 43 42 43 43 44 43 43 43 44 44 42 41 41 41 41 41
47 46 40 41 44 45 44 45 39 40 43 41 42 39 41 40 41 41 39 37 37 35 37 38 35 34 34 31 29 29 31 31 34 30 27 30 30 31 30 29 32 39 41 41 41 41 41 42 44 43 42 41 41 42 41 41 41 42 43 40 40 42 43 44 43 44 44 44 42 41 41 41 41 41
43 44 45 44 46 47 46 45 45 45 43 42 42 41 41 41 42 40 40 39 37 35 35 35 32 32 33 33 30 25 27 32 31 27 27 29 33 32 29 31 33 38 40 40 41 41 42 43 42 42 41 41 41 41 41 41 41 41 41 41 41 42 43 43 44 44 44 44 43 42 42 40 41 41
43 43 44 46 46 46 45 44 44 43 44 43 43 43 41 40 40 40 41 41 38 36 34 33 31 32 31 32 26 26 30 28 29 28 29 30 29 28 30 31 33 37 40 41 41 42 43 43 42 42 41 40 40 40 40 41 41 41 40 41 41 41 42 42 42 43 44 43 43 43 43 42 42 42
42 44 45 44 45 45 46 44 41 42 43 42 42 43 39 38 40 40 39 38 38 35 33 33 33 33 30 30 29 28 26 28 27 29 30 28 27 28 30 35 36 40 40 40 41 41 42 42 42 41 41 40 40 40 40 40 40 40 41 41 42 42 42 43 44 44 44 44 44 44 43 43 43 43
45 45 43 46 44 44 44 43 42 41 40 41 42 41 39 36 37 38 36 37 36 34 33 32 31 32 32 31 32 28 27 29 29 29 27 27 28 29 31 33 35 36 36 38 39 41 41 41 42 41 40 40 40 39 39 40 40 40 40 41 42 42 41 42 43 43 43 44 44 43 43 43 44 43
45 45 43 44 44 42 43 42 39 38 38 40 40 40 38 36 36 35 35 33 32 33 31 30 30 30 32 32 31 28 29 28 29 27 27 27 29 31 32 33 34 35 36 39 40 39 40 42 41 40 40 40 40 40 39 40 40 40 40 40 38 38 39 40 41 43 43 44 43 43 43 42 43 43
44 44 45 42 39 39 37 39 39 38 37 39 39 38 38 37 36 35 35 34 32 31 31 30 29 30 31 31 31 31 30 29 29 30 29 28 30 31 32 32 33 34 36 36 35 38 41 40 40 40 40 40 40 40 39 39 40 40 39 38 39 40 39 40 41 42 43 44 43 42 42 42 43 43
44 45 44 37 36 39 34 31 37 37 41 41 38 38 37 38 37 36 35 35 33 31 31 29 31 30 30 31 31 29 29 28 28 29 30 30 31 31 31 31 32 35 35 35 34 35 40 39 38 38 37 37 39 37 39 37 38 39 38 39 39 39 39 39 39 40 41 41 42 42 42 42 43 42
44 43 40 39 33 34 35 41 41 40 40 40 41 40 38 38 38 37 37 36 35 34 31 29 29 30 31 30 30 30 30 30 30 30 31 31 31 31 29 30 32 35 35 34 33 35 39 39 37 37 36 37 37 35 35 34 37 38 38 38 38 38 38 38 39 39 40 40 40 41 42 42 42 42
44 45 36 37 39 40 40 43 42 40 39 38 39 40 41 43 40 37 37 37 37 36 34 33 32 31 31 31 31 31 30 31 32 32 32 32 31 29 28 27 31 34 33 33 33 33 37 38 37 36 37 37 36 36 35 38 38 38 38 38 38 38 39 39 39 39 39 39 40 40 40 41 42 42
43 44 40 39 43 43 42 42 42 42 41 39 38 37 36 37 38 40 38 36 36 36 34 33 33 33 33 33 33 33 33 34 34 34 33 31 30 28 28 29 29 31 33 33 33 33 35 39 38 36 37 37 37 37 38 38 38 38 38 38 38 38 38 38 38 38 39 40 40 40 40 40 41 41
43 43 45 44 44 43 40 40 42 39 40 42 39 39 39 39 37 35 35 37 37 37 35 35 34 34 34 34 34 35 36 37 35 35 33 31 30 30 30 30 30 31 34 33 32 33 34 37 36 36 37 36 36 36 38 39 39 39 38 38 38 38 38 38 38 38 38 39 39 39 40 40 40 41
45 45 43 43 43 44 43 44 40 38 38 38 39 41 42 43 43 40 37 35 35 38 36 36 34 36 36 35 35 37 38 37 36 35 34 33 31 31 31 32 31 32 34 31 33 34 33 35 37 35 35 37 36 36 38 39 39 39 38 38 38 38 38 38 38 38 38 38 39 39 40 40 40 40
46 46 46 45 44 43 43 40 40 37 37 37 38 39 41 42 41 42 43 40 38 38 37 36 37 36 35 35 36 37 37 37 37 37 36 35 34 34 33 30 31 30 31 32 37 34 33 35 36 36 36 37 35 36 38 38 39 39 39 38 38 38 38 38 38 38 38 39 39 39 39 39 40 40
45 46 46 43 43 42 38 39 36 38 39 37 37 39 41 41 41 42 46 41 39 41 39 37 36 35 36 36 36 36 36 36 36 38 37 36 34 29 29 28 29 28 29 33 38 36 33 35 37 36 37 36 35 36 37 38 39 39 38 38 37 38 38 38 37 38 38 38 39 39 39 39 38 39
45 46 43 42 43 44 39 37 35 36 38 38 38 39 40 41 41 42 47 39 36 36 35 35 35 35 34 35 35 35 36 36 37 37 36 30 29 29 28 28 27 26 28 30 39 38 35 34 37 38 37 36 35 36 36 37 38 39 38 37 37 38 38 38 37 38 38 38 39 39 39 39 39 39
44 45 47 40 43 42 36 35 35 34 40 39 38 38 38 38 39 39 38 37 37 36 36 36 36 36 36 36 37 37 37 37 38 36 30 30 30 30 29 26 26 27 27 29 40 38 33 34 38 38 37 36 36 36 37 38 37 37 36 37 38 38 38 38 37 37 38 38 39 39 39 39 40 39
44 42 44 44 41 40 40 34 35 34 38 39 38 38 38 38 38 37 36 34 34 35 35 36 37 39 39 39 38 38 37 36 39 34 33 32 31 29 28 28 27 26 27 27 40 35 31 36 38 38 36 33 35 37 38 38 36 34 34 37 37 38 38 38 37 38 38 39 39 40 40 39 39 39
43 41 40 37 33 32 34 34 33 34 35 38 40 39 37 37 37 39 36 35 35 35 36 35 39 39 38 39 37 36 35 37 38 34 34 34 33 30 29 29 28 27 26 27 32 30 33 38 39 39 37 34 32 36 38 37 36 35 34 38 37 38 38 38 38 39 39 40 41 41 40 40 39 38
39 39 34 33 33 32 33 33 33 35 35 36 39 39 37 38 39 36 35 36 39 35 35 38 38 36 35 36 34 34 34 34 34 36 35 33 32 31 30 29 29 27 27 28 33 30 33 38 38 38 37 37 36 36 38 37 36 35 36 38 38 37 36 36 38 40 41 41 42 42 41 40 40 38
37 39 37 32 32 32 33 34 35 35 35 35 39 37 35 34 34 35 36 36 35 34 35 35 35 35 34 33 34 34 34 34 36 36 34 33 33 32 32 31 29 29 27 28 33 31 35 35 36 36 36 36 35 37 36 36 36 35 36 38 37 37 37 37 39 41 42 44 45 44 41 40 40 39
38 39 42 38 34 32 33 34 34 35 35 35 35 35 34 34 34 35 36 35 35 34 36 37 36 35 34 33 32 33 33 34 35 36 34 34 33 33 33 33 31 29 29 29 30 31 34 35 38 37 36 36 35 35 35 34 34 36 37 37 38 38 39 39 38 39 42 44 46 43 40 39 39 39
37 39 36 34 32 33 34 34 34 34 35 34 34 34 34 34 34 34 35 34 34 36 36 37 35 34 34 34 33 33 35 35 37 36 35 35 33 33 33 31 31 31 31 29 29 29 30 32 37 39 37 35 34 33 32 35 36 36 36 37 37 37 39 40 39 40 42 44 47 40 39 38 39 38
38 33 33 33 33 33 34 34 34 34 33 33 33 33 33 35 34 35 35 35 36 36 35 34 35 33 33 34 34 35 37 37 36 34 36 34 34 33 31 31 31 31 32 32 29 28 28 30 34 37 36 35 34 34 33 33 35 35 37 36 36 36 38 39 39 39 41 44 47 40 39 38 38 38
31 31 32 33 33 33 33 34 35 34 35 34 34 33 35 36 35 35 34 35 36 35 34 33 33 33 34 34 34 36 36 35 33 33 33 32 32 32 31 29 29 29 30 30 29 29 28 29 33 33 34 34 34 33 33 33 34 36 37 36 37 37 38 39 39 40 41 45 46 42 42 40 39 39
34 34 33 32 33 32 33 34 35 33 34 34 34 34 36 37 36 36 36 36 36 36 37 34 33 34 35 35 35 34 34 34 33 33 34 32 32 32 30 29 29 29 30 30 29 29 28 29 32 31 33 33 33 33 33 34 34 35 36 37 37 34 36 37 39 39 41 44 46 45 45 44 42 40
39 39 34 33 37 37 36 35 34 32 33 32 31 31 32 34 36 37 38 37 33 34 37 35 36 35 38 34 33 34 33 33 33 33 34 33 32 32 31 29 29 29 29 29 29 29 31 30 31 31 35 32 32 33 33 34 34 35 35 36 36 37 37 36 36 37 40 42 44 43 42 42 43 42
38 39 39 38 38 36 32 31 33 32 33 33 34 37 38 37 37 37 33 35 34 37 36 35 35 35 34 34 34 33 32 33 32 33 33 33 33 32 32 30 29 29 29 29 29 29 28 28 30 30 37 31 33 32 33 32 32 35 35 35 36 36 37 36 36 35 36 39 38 40 40 40 41 41
36 37 35 36 35 36 35 34 33 35 35 36 35 36 32 35 34 33 34 33 33 36 37 36 34 35 34 34 34 32 33 32 33 33 32 32 33 32 30 30 30 30 30 29 29 30 29 28 27 27 33 35 33 34 34 32 32 33 35 36 35 36 37 37 36 36 36 36 36 35 36 36 38 40
32 32 33 34 34 33 34 33 34 33 33 31 30 32 33 35 37 33 37 35 33 32 31 34 36 34 33 34 33 34 31 33 33 33 32 32 33 31 31 30 30 30 30 30 29 29 29 27 27 27 26 28 31 34 34 35 33 32 34 35 35 35 36 38 37 36 37 35 36 35 34 34 35 35
28 30 31 29 28 28 28 29 29 30 31 33 34 34 31 32 33 33 31 34 33 33 34 33 29 30 32 34 32 31 32 30 32 33 33 33 32 31 31 31 31 31 30 31 30 29 29 28 27 27 26 26 26 26 28 36 36 34 32 32 33 35 36 37 37 35 36 36 36 36 33 33 34 34
27 29 29 27 26 25 26 26 27 29 31 33 33 31 32 32 33 34 34 31 39 33 34 30 31 31 30 29 29 30 31 31 31 31 32 32 32 32 31 30 30 30 30 31 31 30 31 29 29 27 27 27 25 25 26 31 34 36 35 33 33 34 33 36 36 35 35 37 36 36 35 34 33 34
28 27 25 23 23 24 26 28 31 30 29 31 34 34 35 36 36 36 36 35 33 33 31 32 29 30 31 30 30 31 31 31 31 30 30 32 31 30 31 30 30 30 30 30 31 31 30 30 29 29 28 27 25 25 26 27 28 32 35 35 33 33 34 34 33 33 34 35 36 36 36 34 33 34
30 29 28 27 27 25 26 27 28 31 36 36 35 35 35 35 36 35 34 34 35 32 35 31 30 29 30 32 31 30 30 30 30 30 30 30 31 30 31 30 30 30 31 31 30 31 31 30 30 30 29 29 27 26 27 27 26 30 33 35 35 33 33 33 32 34 35 34 36 37 35 37 38 34
34 34 33 31 29 27 26 29 28 30 34 36 35 35 34 32 33 34 33 31 31 35 32 28 28 29 31 32 31 31 30 32 30 29 30 30 30 30 30 30 30 30 30 30 30 30 30 30 31 30 30 31 30 29 29 29 28 31 29 33 35 35 34 33 33 32 32 35 36 33 32 33 32 33
34 34 33 32 30 30 29 29 30 32 35 36 37 35 34 35 34 33 31 30 30 29 27 28 29 30 31 31 32 29 27 28 28 30 30 29 30 30 30 30 30 30 30 30 30 30 30 31 32 31 32 32 31 29 28 27 27 27 27 30 34 35 35 36 34 33 32 34 35 32 32 32 32 32
34 33 33 32 30 27 27 28 29 31 34 35 35 35 36 35 34 33 31 29 33 30 29 29 30 30 31 30 28 27 26 27 28 28 28 29 29 29 30 29 29 29 30 29 30 30 30 32 32 32 31 31 29 28 27 28 27 27 28 28 29 33 34 35 35 35 35 34 33 32 32 32 32 32
33 33 33 32 30 28 26 26 27 30 33 34 35 36 35 35 33 32 31 31 31 29 29 28 29 27 26 26 27 26 26 27 26 27 29 29 29 29 29 29 29 30 30 30 30 30 31 31 31 31 31 30 29 28 28 28 28 28 28 27 27 30 30 34 34 34 34 34 34 34 33 32 32 31
34 34 32 31 30 29 28 28 30 32 34 38 35 35 33 32 31 31 30 29 28 28 27 26 26 26 27 28 27 27 27 26 26 28 28 28 29 28 27 29 29 30 30 29 29 30 30 30 30 31 30 29 29 29 29 29 28 28 28 28 28 29 26 30 30 32 33 33 34 34 34 34 33 33
33 33 32 30 29 30 31 31 34 34 35 35 33 33 32 31 29 29 30 29 27 27 27 27 27 28 27 27 27 28 28 30 29 28 29 29 28 29 29 29 29 29 29 30 30 30 30 30 30 30 30 30 30 29 29 29 29 29 28 27 27 28 28 27 26 29 30 31 33 34 34 34 34 34